,,,PA_Meas_PMT16A,,PR_Meas_QMR101_102,,RH_Meas_QMH101,,SR_Meas_QMS101,,TA_Meas_QMH101,,GenWind,,GenWind,
date,time,status,PA,status,PR,status,RH,status,SR,status,TA,status,DirAvg,status,SpdAvg,
2009-04-12, 00:00:05,VALID,1002.46,VALID,0,VALID,92.8587,VALID,0,VALID,25.0469,VALID,60,VALID,0,
2009-04-12, 00:01:05,VALID,1002.47,VALID,0,VALID,92.9121,VALID,0,VALID,25.0255,VALID,60,VALID,0,
2009-04-12, 00:02:05,VALID,1002.45,VALID,0,VALID,92.8587,VALID,0,VALID,25.0255,VALID,60,VALID,0,
2009-04-12, 00:03:05,VALID,1002.42,VALID,0,VALID,92.9198,VALID,0,VALID,25.0255,VALID,60,VALID,0,
2009-04-12, 00:04:05,VALID,1002.44,VALID,0,VALID,92.9579,VALID,0,VALID,25.045,VALID,60,VALID,0,
2009-04-12, 00:05:05,VALID,1002.4,VALID,0,VALID,93.1257,VALID,0,VALID,25.0663,VALID,60,VALID,0.218359,
2009-04-12, 00:06:05,VALID,1002.42,VALID,0,VALID,93.1029,VALID,0,VALID,25.0858,VALID,60,VALID,0.241016,
2009-04-12, 00:07:05,VALID,1002.38,VALID,0,VALID,93.0495,VALID,0,VALID,25.0255,VALID,60,VALID,0,
2009-04-12, 00:08:05,VALID,1002.4,VALID,0,VALID,93.0495,VALID,0,VALID,25.0469,VALID,60,VALID,0,
2009-04-12, 00:09:05,VALID,1002.39,VALID,0,VALID,93.0647,VALID,0,VALID,25.0274,VALID,60,VALID,0.430078,
2009-04-12, 00:10:05,VALID,1002.37,VALID,0,VALID,93.1181,VALID,0,VALID,25.0469,VALID,60,VALID,0.208984,
2009-04-12, 00:11:05,VALID,1002.38,VALID,0,VALID,93.08,VALID,0,VALID,25.006,VALID,60,VALID,0.154687,
2009-04-12, 00:12:05,VALID,1002.41,VALID,0,VALID,93.0952,VALID,0,VALID,25.0079,VALID,60,VALID,0,
2009-04-12, 00:13:05,VALID,1002.42,VALID,0,VALID,93.1105,VALID,0,VALID,24.9885,VALID,60,VALID,0.00273437,
2009-04-12, 00:14:05,VALID,1002.45,VALID,0,VALID,93.1105,VALID,0,VALID,24.969,VALID,60,VALID,0,
2009-04-12, 00:15:05,VALID,1002.46,VALID,0,VALID,93.1105,VALID,0,VALID,24.969,VALID,60,VALID,0,
2009-04-12, 00:16:05,VALID,1002.48,VALID,0,VALID,93.0876,VALID,0,VALID,24.93,VALID,60,VALID,0,
2009-04-12, 00:17:05,VALID,1002.47,VALID,0,VALID,93.0723,VALID,0,VALID,24.8892,VALID,60,VALID,0,
2009-04-12, 00:18:05,VALID,1002.47,VALID,0,VALID,93.141,VALID,0,VALID,24.9106,VALID,60,VALID,0,
2009-04-12, 00:19:05,VALID,1002.48,VALID,0,VALID,93.2707,VALID,0,VALID,24.9106,VALID,60,VALID,0,
2009-04-12, 00:20:05,VALID,1002.47,VALID,0,VALID,93.3165,VALID,0,VALID,24.8892,VALID,60,VALID,0,
2009-04-12, 00:21:05,VALID,1002.47,VALID,0,VALID,93.3317,VALID,0,VALID,24.9106,VALID,60,VALID,0,
2009-04-12, 00:22:05,VALID,1002.46,VALID,0,VALID,93.347,VALID,0,VALID,24.8892,VALID,60,VALID,0,
2009-04-12, 00:23:05,VALID,1002.49,VALID,0,VALID,93.3851,VALID,0,VALID,24.9106,VALID,60,VALID,0,
2009-04-12, 00:24:05,VALID,1002.48,VALID,0,VALID,93.3699,VALID,0,VALID,24.8697,VALID,60,VALID,0.0652344,
2009-04-12, 00:25:05,VALID,1002.49,VALID,0,VALID,93.4385,VALID,0,VALID,24.8697,VALID,60,VALID,0.0046875,
2009-04-12, 00:26:05,VALID,1002.51,VALID,0,VALID,93.4996,VALID,0,VALID,24.9319,VALID,60,VALID,0.535547,
2009-04-12, 00:27:05,VALID,1002.51,VALID,0,VALID,93.5758,VALID,0,VALID,24.93,VALID,60,VALID,0.464453,
2009-04-12, 00:28:05,VALID,1002.54,VALID,0,VALID,93.553,VALID,0,VALID,24.93,VALID,60,VALID,0.363281,
2009-04-12, 00:29:05,VALID,1002.57,VALID,0,VALID,93.408,VALID,0,VALID,24.8716,VALID,60,VALID,0.0730469,
2009-04-12, 00:30:05,VALID,1002.59,VALID,0,VALID,93.3165,VALID,0,VALID,24.8132,VALID,60,VALID,0.310937,
2009-04-12, 00:31:05,VALID,1002.6,VALID,0,VALID,93.2936,VALID,0,VALID,24.7743,VALID,60,VALID,0.399219,
2009-04-12, 00:32:05,VALID,1002.62,VALID,0,VALID,93.347,VALID,0,VALID,24.7743,VALID,60,VALID,0.216016,
2009-04-12, 00:33:05,VALID,1002.62,VALID,0,VALID,93.3775,VALID,0,VALID,24.7548,VALID,60,VALID,0.263281,
2009-04-12, 00:34:05,VALID,1002.62,VALID,0,VALID,93.4004,VALID,0,VALID,24.7159,VALID,60,VALID,0.232031,
2009-04-12, 00:35:05,VALID,1002.6,VALID,0,VALID,93.4004,VALID,0,VALID,24.6964,VALID,60,VALID,0.390234,
2009-04-12, 00:36:05,VALID,1002.58,VALID,0,VALID,93.408,VALID,0,VALID,24.6574,VALID,59,VALID,0.389844,
2009-04-12, 00:37:05,VALID,1002.54,VALID,0,VALID,93.4767,VALID,0,VALID,24.6166,VALID,52,VALID,0.473047,
2009-04-12, 00:38:05,VALID,1002.54,VALID,0,VALID,93.5453,VALID,0,VALID,24.638,VALID,48,VALID,0.651563,
2009-04-12, 00:39:05,VALID,1002.51,VALID,0,VALID,93.5758,VALID,0,VALID,24.638,VALID,39,VALID,0.714063,
2009-04-12, 00:40:05,VALID,1002.49,VALID,0,VALID,93.6826,VALID,0,VALID,24.6166,VALID,39,VALID,0.662109,
2009-04-12, 00:41:05,VALID,1002.49,VALID,0,VALID,93.7208,VALID,0,VALID,24.6361,VALID,39,VALID,0.655469,
2009-04-12, 00:42:05,VALID,1002.51,VALID,0,VALID,93.7895,VALID,0,VALID,24.675,VALID,39,VALID,0.527734,
2009-04-12, 00:43:05,VALID,1002.53,VALID,0,VALID,93.7589,VALID,0,VALID,24.6556,VALID,39,VALID,0.633594,
2009-04-12, 00:44:05,VALID,1002.51,VALID,0,VALID,93.7971,VALID,0.100563,VALID,24.6964,VALID,39,VALID,0.464844,
2009-04-12, 00:45:05,VALID,1002.5,VALID,0,VALID,93.7284,VALID,0,VALID,24.6769,VALID,39,VALID,0.182031,
2009-04-12, 00:46:05,VALID,1002.5,VALID,0,VALID,93.675,VALID,0,VALID,24.6556,VALID,39,VALID,0.236719,
2009-04-12, 00:47:05,VALID,1002.49,VALID,0,VALID,93.6674,VALID,0,VALID,24.6769,VALID,39,VALID,0.181641,
2009-04-12, 00:48:05,VALID,1002.49,VALID,0,VALID,93.6826,VALID,0,VALID,24.6769,VALID,39,VALID,0.173828,
2009-04-12, 00:49:05,VALID,1002.45,VALID,0,VALID,93.7055,VALID,0,VALID,24.6769,VALID,39,VALID,0.203906,
2009-04-12, 00:50:05,VALID,1002.45,VALID,0,VALID,93.6903,VALID,0,VALID,24.6964,VALID,39,VALID,0.188281,
2009-04-12, 00:51:05,VALID,1002.44,VALID,0,VALID,93.7132,VALID,0,VALID,24.675,VALID,39,VALID,0.00117188,
2009-04-12, 00:52:05,VALID,1002.43,VALID,0,VALID,93.6292,VALID,0,VALID,24.6945,VALID,39,VALID,0.207813,
2009-04-12, 00:53:05,VALID,1002.43,VALID,0,VALID,93.7284,VALID,0,VALID,24.7353,VALID,47,VALID,0.257813,
2009-04-12, 00:54:05,VALID,1002.44,VALID,0,VALID,93.7895,VALID,0,VALID,24.7529,VALID,46,VALID,0.445313,
2009-04-12, 00:55:05,VALID,1002.43,VALID,0,VALID,93.7132,VALID,0,VALID,24.8113,VALID,45,VALID,0.165625,
2009-04-12, 00:56:05,VALID,1002.42,VALID,0,VALID,93.5377,VALID,0,VALID,24.8113,VALID,45,VALID,0.25,
2009-04-12, 00:57:05,VALID,1002.42,VALID,0,VALID,93.3928,VALID,0,VALID,24.8132,VALID,45,VALID,0.384766,
2009-04-12, 00:58:05,VALID,1002.4,VALID,0,VALID,93.3851,VALID,0,VALID,24.8327,VALID,45,VALID,0,
2009-04-12, 00:59:05,VALID,1002.41,VALID,0,VALID,93.2936,VALID,0,VALID,24.8327,VALID,45,VALID,0,
2009-04-12, 01:00:05,VALID,1002.41,VALID,0,VALID,93.2097,VALID,0,VALID,24.8327,VALID,41,VALID,0.206641,
2009-04-12, 01:01:05,VALID,1002.41,VALID,0,VALID,93.1486,VALID,0,VALID,24.8327,VALID,41,VALID,0,
2009-04-12, 01:02:05,VALID,1002.39,VALID,0,VALID,93.1334,VALID,0,VALID,24.8132,VALID,41,VALID,0,
2009-04-12, 01:03:05,VALID,1002.37,VALID,0,VALID,93.0495,VALID,0,VALID,24.7724,VALID,41,VALID,0.235938,
2009-04-12, 01:04:05,VALID,1002.34,VALID,0,VALID,92.9426,VALID,0,VALID,24.7335,VALID,41,VALID,0.203906,
2009-04-12, 01:05:05,VALID,1002.31,VALID,0,VALID,92.9732,VALID,0,VALID,24.7548,VALID,41,VALID,0.402344,
2009-04-12, 01:06:05,VALID,1002.3,VALID,0,VALID,92.9655,VALID,0,VALID,24.6945,VALID,41,VALID,0.635156,
2009-04-12, 01:07:05,VALID,1002.28,VALID,0,VALID,92.9808,VALID,0,VALID,24.6556,VALID,41,VALID,0.494141,
2009-04-12, 01:08:05,VALID,1002.24,VALID,0,VALID,93.2936,VALID,0,VALID,24.7159,VALID,40,VALID,0.292969,
2009-04-12, 01:09:05,VALID,1002.2,VALID,0,VALID,93.1639,VALID,0,VALID,24.714,VALID,39,VALID,0.30625,
2009-04-12, 01:10:05,VALID,1002.17,VALID,0,VALID,93.1486,VALID,0,VALID,24.6537,VALID,33,VALID,0.671875,
2009-04-12, 01:11:05,VALID,1002.14,VALID,0,VALID,93.1639,VALID,0,VALID,24.6361,VALID,27,VALID,0.451172,
2009-04-12, 01:12:04,VALID,1002.12,VALID,0,VALID,93.3165,VALID,0,VALID,24.6964,VALID,20,VALID,0.605469,
2009-04-12, 01:13:04,VALID,1002.08,VALID,0,VALID,93.5148,VALID,0,VALID,24.6945,VALID,348,VALID,0.687109,
2009-04-12, 01:14:04,VALID,1002.08,VALID,0,VALID,93.4919,VALID,0,VALID,24.7159,VALID,348,VALID,0.583984,
2009-04-12, 01:15:04,VALID,1002.04,VALID,0,VALID,93.3622,VALID,0,VALID,24.6964,VALID,16,VALID,0.693359,
2009-04-12, 01:16:04,VALID,1001.99,VALID,0,VALID,93.3317,VALID,0,VALID,24.6556,VALID,4,VALID,0.744531,
2009-04-12, 01:17:04,VALID,1002,VALID,0,VALID,93.4233,VALID,0,VALID,24.6556,VALID,4,VALID,0.651563,
2009-04-12, 01:18:04,VALID,1001.98,VALID,0,VALID,93.4996,VALID,0,VALID,24.6769,VALID,29,VALID,0.649609,
2009-04-12, 01:19:04,VALID,1002,VALID,0,VALID,93.614,VALID,0,VALID,24.7548,VALID,30,VALID,0.653516,
2009-04-12, 01:20:04,VALID,1002,VALID,0,VALID,93.5987,VALID,0,VALID,24.8132,VALID,30,VALID,0.532031,
2009-04-12, 01:21:04,VALID,1002.03,VALID,0,VALID,93.4996,VALID,0,VALID,24.8522,VALID,30,VALID,0.324609,
2009-04-12, 01:22:04,VALID,1002.04,VALID,0,VALID,93.4614,VALID,0,VALID,24.9106,VALID,35,VALID,1.07383,
2009-04-12, 01:23:04,VALID,1002.02,VALID,0,VALID,93.3775,VALID,0,VALID,25.0469,VALID,49,VALID,0.542578,
2009-04-12, 01:24:04,VALID,1002.02,VALID,0,VALID,93.0189,VALID,0,VALID,25.1637,VALID,30,VALID,0.364844,
2009-04-12, 01:25:04,VALID,1002.01,VALID,0,VALID,92.6222,VALID,0,VALID,25.2221,VALID,37,VALID,0.558594,
2009-04-12, 01:26:04,VALID,1001.98,VALID,0,VALID,92.1798,VALID,0,VALID,25.2806,VALID,29,VALID,0.885156,
2009-04-12, 01:27:04,VALID,1001.98,VALID,0,VALID,91.5695,VALID,0,VALID,25.339,VALID,32,VALID,0.625,
2009-04-12, 01:28:04,VALID,1001.95,VALID,0,VALID,91.2643,VALID,0,VALID,25.339,VALID,56,VALID,0.390625,
2009-04-12, 01:29:04,VALID,1001.92,VALID,0,VALID,91.1804,VALID,0,VALID,25.3779,VALID,35,VALID,0.630469,
2009-04-12, 01:30:04,VALID,1001.9,VALID,0,VALID,91.0049,VALID,0,VALID,25.4558,VALID,38,VALID,0.630078,
2009-04-12, 01:31:04,VALID,1001.88,VALID,0,VALID,90.5396,VALID,0,VALID,25.4753,VALID,31,VALID,0.691797,
2009-04-12, 01:32:04,VALID,1001.88,VALID,0,VALID,90.2802,VALID,0,VALID,25.5921,VALID,27,VALID,1.19102,
2009-04-12, 01:33:04,VALID,1001.85,VALID,0,VALID,89.4334,VALID,0,VALID,25.7499,VALID,11,VALID,0.4625,
2009-04-12, 01:34:04,VALID,1001.83,VALID,0,VALID,88.8917,VALID,0,VALID,25.7285,VALID,34,VALID,0.755859,
2009-04-12, 01:35:04,VALID,1001.82,VALID,0,VALID,88.7315,VALID,0,VALID,25.67,VALID,23,VALID,0.664453,
2009-04-12, 01:36:04,VALID,1001.82,VALID,0,VALID,88.9909,VALID,0,VALID,25.5921,VALID,24,VALID,0.889844,
2009-04-12, 01:37:04,VALID,1001.79,VALID,0,VALID,89.0977,VALID,0,VALID,25.67,VALID,38,VALID,0.889063,
2009-04-12, 01:38:04,VALID,1001.77,VALID,0,VALID,88.7544,VALID,0,VALID,25.748,VALID,37,VALID,0.776953,
2009-04-12, 01:39:04,VALID,1001.73,VALID,0,VALID,88.4035,VALID,0,VALID,25.8064,VALID,24,VALID,0.780078,
2009-04-12, 01:40:04,VALID,1001.73,VALID,0,VALID,88.2051,VALID,0,VALID,25.8278,VALID,21,VALID,0.8125,
2009-04-12, 01:41:04,VALID,1001.69,VALID,0,VALID,88.1746,VALID,0,VALID,25.8064,VALID,4,VALID,1.41094,
2009-04-12, 01:42:04,VALID,1001.67,VALID,0,VALID,87.7169,VALID,0,VALID,25.9427,VALID,22,VALID,0.989453,
2009-04-12, 01:43:04,VALID,1001.67,VALID,0,VALID,87.3125,VALID,0,VALID,26.0206,VALID,60,VALID,0.414453,
2009-04-12, 01:44:04,VALID,1001.68,VALID,0,VALID,87.0684,VALID,0,VALID,26.0381,VALID,31,VALID,0.844531,
2009-04-12, 01:45:04,VALID,1001.67,VALID,0,VALID,86.8014,VALID,0,VALID,26.0985,VALID,33,VALID,0.953906,
2009-04-12, 01:46:04,VALID,1001.68,VALID,0,VALID,86.3513,VALID,0,VALID,26.1959,VALID,29,VALID,0.971484,
2009-04-12, 01:47:04,VALID,1001.67,VALID,0,VALID,86.0995,VALID,0,VALID,26.2544,VALID,39,VALID,0.682422,
2009-04-12, 01:48:04,VALID,1001.66,VALID,0,VALID,85.7715,VALID,0,VALID,26.2719,VALID,29,VALID,1.25234,
2009-04-12, 01:49:04,VALID,1001.63,VALID,0,VALID,85.3977,VALID,0,VALID,26.4102,VALID,32,VALID,0.689844,
2009-04-12, 01:50:04,VALID,1001.61,VALID,0,VALID,85.2756,VALID,0,VALID,26.3887,VALID,32,VALID,0.741406,
2009-04-12, 01:51:04,VALID,1001.59,VALID,0,VALID,84.9323,VALID,0,VALID,26.4297,VALID,18,VALID,1.6707,
2009-04-12, 01:52:04,VALID,1001.6,VALID,0,VALID,84.6043,VALID,0,VALID,26.5251,VALID,5,VALID,1.28203,
2009-04-12, 01:53:04,VALID,1001.57,VALID,0,VALID,84.4746,VALID,0,VALID,26.5271,VALID,46,VALID,0.907422,
2009-04-12, 01:54:04,VALID,1001.6,VALID,0,VALID,84.6653,VALID,0,VALID,26.5076,VALID,24,VALID,0.676953,
2009-04-12, 01:55:04,VALID,1001.59,VALID,0,VALID,84.8637,VALID,0,VALID,26.4707,VALID,28,VALID,0.697656,
2009-04-12, 01:56:04,VALID,1001.62,VALID,0,VALID,85.123,VALID,0,VALID,26.3907,VALID,23,VALID,0.689844,
2009-04-12, 01:57:04,VALID,1001.59,VALID,0,VALID,85.2451,VALID,0,VALID,26.3713,VALID,316,VALID,0.660547,
2009-04-12, 01:58:04,VALID,1001.6,VALID,0,VALID,84.9781,VALID,0,VALID,26.4492,VALID,22,VALID,0.980078,
2009-04-12, 01:59:04,VALID,1001.61,VALID,0,VALID,84.4822,VALID,0,VALID,26.5271,VALID,12,VALID,1.27578,
2009-04-12, 02:00:04,VALID,1001.6,VALID,0,VALID,84.2457,VALID,0.100563,VALID,26.6245,VALID,24,VALID,0.672266,
2009-04-12, 02:01:04,VALID,1001.59,VALID,0,VALID,84.1389,VALID,0,VALID,26.603,VALID,25,VALID,0.307813,
2009-04-12, 02:02:04,VALID,1001.62,VALID,0,VALID,84.3907,VALID,0,VALID,26.5855,VALID,25,VALID,0.182031,
2009-04-12, 02:03:04,VALID,1001.61,VALID,0,VALID,84.3754,VALID,0,VALID,26.5486,VALID,22,VALID,1.24844,
2009-04-12, 02:04:04,VALID,1001.6,VALID,0,VALID,84.4746,VALID,0,VALID,26.5681,VALID,26,VALID,0.785547,
2009-04-12, 02:05:04,VALID,1001.56,VALID,0,VALID,84.5585,VALID,0.100563,VALID,26.5056,VALID,38,VALID,0.551562,
2009-04-12, 02:06:04,VALID,1001.57,VALID,0,VALID,84.7874,VALID,0,VALID,26.4687,VALID,38,VALID,0.348047,
2009-04-12, 02:07:04,VALID,1001.52,VALID,0,VALID,85.0773,VALID,0,VALID,26.3713,VALID,38,VALID,0.333203,
2009-04-12, 02:08:04,VALID,1001.5,VALID,0,VALID,85.4053,VALID,0,VALID,26.3128,VALID,26,VALID,0.337891,
2009-04-12, 02:09:04,VALID,1001.46,VALID,0,VALID,85.7334,VALID,0,VALID,26.2349,VALID,28,VALID,0.451953,
2009-04-12, 02:10:04,VALID,1001.45,VALID,0,VALID,86.0385,VALID,0,VALID,26.1765,VALID,28,VALID,0.0226563,
2009-04-12, 02:11:04,VALID,1001.41,VALID,0,VALID,86.3132,VALID,0,VALID,26.118,VALID,28,VALID,0.191016,
2009-04-12, 02:12:04,VALID,1001.42,VALID,0,VALID,86.5649,VALID,0,VALID,26.0596,VALID,28,VALID,0.128125,
2009-04-12, 02:13:04,VALID,1001.42,VALID,0,VALID,86.809,VALID,0,VALID,25.9817,VALID,28,VALID,0.163672,
2009-04-12, 02:14:04,VALID,1001.37,VALID,0,VALID,87.1066,VALID,0,VALID,25.9232,VALID,28,VALID,0,
2009-04-12, 02:15:04,VALID,1001.36,VALID,0,VALID,87.3965,VALID,0,VALID,25.8453,VALID,28,VALID,0,
2009-04-12, 02:16:04,VALID,1001.37,VALID,0,VALID,87.8084,VALID,0,VALID,25.7869,VALID,28,VALID,0.323047,
2009-04-12, 02:17:04,VALID,1001.37,VALID,0,VALID,88.1441,VALID,0,VALID,25.7285,VALID,28,VALID,0.417578,
2009-04-12, 02:18:04,VALID,1001.35,VALID,0,VALID,88.5103,VALID,0,VALID,25.6097,VALID,82,VALID,0.333984,
2009-04-12, 02:19:04,VALID,1001.36,VALID,0,VALID,88.8765,VALID,0,VALID,25.5337,VALID,82,VALID,0.457812,
2009-04-12, 02:20:04,VALID,1001.33,VALID,0,VALID,89.0595,VALID,0,VALID,25.4558,VALID,82,VALID,0.181641,
2009-04-12, 02:21:04,VALID,1001.32,VALID,0,VALID,89.296,VALID,0,VALID,25.3779,VALID,82,VALID,0.435547,
2009-04-12, 02:22:04,VALID,1001.33,VALID,0,VALID,89.5249,VALID,0,VALID,25.3214,VALID,82,VALID,0.236719,
2009-04-12, 02:23:04,VALID,1001.29,VALID,0,VALID,89.8301,VALID,0,VALID,25.2007,VALID,82,VALID,0.199609,
2009-04-12, 02:24:04,VALID,1001.27,VALID,0,VALID,90.0742,VALID,0,VALID,25.2027,VALID,82,VALID,0.110156,
2009-04-12, 02:25:04,VALID,1001.24,VALID,0,VALID,90.3259,VALID,0,VALID,25.1229,VALID,82,VALID,0.274219,
2009-04-12, 02:26:04,VALID,1001.23,VALID,0,VALID,90.5014,VALID,0,VALID,25.1053,VALID,82,VALID,0.15625,
2009-04-12, 02:27:04,VALID,1001.2,VALID,0,VALID,90.6616,VALID,0,VALID,25.0858,VALID,82,VALID,0,
2009-04-12, 02:28:04,VALID,1001.2,VALID,0,VALID,90.8447,VALID,0,VALID,25.0877,VALID,82,VALID,0.0355469,
2009-04-12, 02:29:04,VALID,1001.18,VALID,0,VALID,90.982,VALID,0,VALID,25.0488,VALID,82,VALID,0.302344,
2009-04-12, 02:30:04,VALID,1001.15,VALID,0,VALID,91.1041,VALID,0,VALID,25.006,VALID,82,VALID,0,
2009-04-12, 02:31:04,VALID,1001.12,VALID,0,VALID,91.1956,VALID,0,VALID,24.9476,VALID,82,VALID,0,
2009-04-12, 02:32:04,VALID,1001.11,VALID,0,VALID,91.2796,VALID,0,VALID,24.9495,VALID,66,VALID,0.272266,
2009-04-12, 02:33:04,VALID,1001.09,VALID,0,VALID,91.333,VALID,0,VALID,24.9514,VALID,66,VALID,0.0175781,
2009-04-12, 02:34:04,VALID,1001.1,VALID,0,VALID,91.4398,VALID,0,VALID,24.8911,VALID,66,VALID,0.171094,
2009-04-12, 02:35:04,VALID,1001.09,VALID,0,VALID,91.5923,VALID,0,VALID,24.8697,VALID,66,VALID,0.255859,
2009-04-12, 02:36:04,VALID,1001.07,VALID,0,VALID,91.6991,VALID,0,VALID,24.8503,VALID,66,VALID,0.291797,
2009-04-12, 02:37:04,VALID,1001.08,VALID,0,VALID,91.7602,VALID,0,VALID,24.8716,VALID,66,VALID,0.0492188,
2009-04-12, 02:38:04,VALID,1001.11,VALID,0,VALID,91.8441,VALID,0,VALID,24.8113,VALID,66,VALID,0,
2009-04-12, 02:39:04,VALID,1001.11,VALID,0,VALID,91.9814,VALID,0,VALID,24.854,VALID,66,VALID,0.152344,
2009-04-12, 02:40:04,VALID,1001.1,VALID,0,VALID,92.0348,VALID,0,VALID,24.8132,VALID,66,VALID,0,
2009-04-12, 02:41:04,VALID,1001.09,VALID,0,VALID,92.073,VALID,0,VALID,24.8132,VALID,66,VALID,0,
2009-04-12, 02:42:04,VALID,1001.08,VALID,0,VALID,92.1798,VALID,0,VALID,24.7937,VALID,66,VALID,0.0886719,
2009-04-12, 02:43:04,VALID,1001.04,VALID,0,VALID,92.2484,VALID,0,VALID,24.7919,VALID,66,VALID,0.134766,
2009-04-12, 02:44:04,VALID,1001.01,VALID,0,VALID,92.3018,VALID,0,VALID,24.7724,VALID,66,VALID,0.117969,
2009-04-12, 02:45:04,VALID,1000.98,VALID,0,VALID,92.3018,VALID,0,VALID,24.7937,VALID,66,VALID,0.00117188,
2009-04-12, 02:46:04,VALID,1000.96,VALID,0,VALID,92.3552,VALID,0,VALID,24.7548,VALID,66,VALID,0.204297,
2009-04-12, 02:47:04,VALID,1000.94,VALID,0,VALID,92.4086,VALID,0,VALID,24.7335,VALID,66,VALID,0,
2009-04-12, 02:48:04,VALID,1000.94,VALID,0,VALID,92.3476,VALID,0,VALID,24.7743,VALID,66,VALID,0.376563,
2009-04-12, 02:49:04,VALID,1000.93,VALID,0,VALID,92.4544,VALID,0.100563,VALID,24.7353,VALID,66,VALID,0.269141,
2009-04-12, 02:50:04,VALID,1000.88,VALID,0,VALID,92.4239,VALID,0,VALID,24.7548,VALID,66,VALID,0.261328,
2009-04-12, 02:51:04,VALID,1000.88,VALID,0,VALID,92.4468,VALID,0,VALID,24.7548,VALID,66,VALID,0.0539063,
2009-04-12, 02:52:04,VALID,1000.87,VALID,0,VALID,92.4163,VALID,0.100563,VALID,24.714,VALID,66,VALID,0.215234,
2009-04-12, 02:53:04,VALID,1000.83,VALID,0,VALID,92.4925,VALID,0.100563,VALID,24.7353,VALID,66,VALID,0.09375,
2009-04-12, 02:54:04,VALID,1000.79,VALID,0,VALID,92.5612,VALID,0,VALID,24.7353,VALID,62,VALID,0.283984,
2009-04-12, 02:55:04,VALID,1000.78,VALID,0,VALID,92.6222,VALID,0,VALID,24.7529,VALID,39,VALID,0.3375,
2009-04-12, 02:56:04,VALID,1000.76,VALID,0,VALID,92.668,VALID,0.100563,VALID,24.7743,VALID,41,VALID,0.931641,
2009-04-12, 02:57:04,VALID,1000.76,VALID,0,VALID,92.813,VALID,0,VALID,24.9282,VALID,9,VALID,0.693359,
2009-04-12, 02:58:04,VALID,1000.76,VALID,0,VALID,92.3476,VALID,0,VALID,24.9885,VALID,39,VALID,0.521875,
2009-04-12, 02:59:04,VALID,1000.76,VALID,0,VALID,92.1111,VALID,0,VALID,25.0255,VALID,28,VALID,0.823828,
2009-04-12, 03:00:04,VALID,1000.73,VALID,0,VALID,91.9433,VALID,0.100563,VALID,25.0644,VALID,9,VALID,0.721484,
2009-04-12, 03:01:04,VALID,1000.73,VALID,0,VALID,91.8441,VALID,0.100563,VALID,25.1034,VALID,20,VALID,0.700391,
2009-04-12, 03:02:04,VALID,1000.71,VALID,0,VALID,91.6381,VALID,0,VALID,25.1637,VALID,23,VALID,0.490234,
2009-04-12, 03:03:04,VALID,1000.7,VALID,0,VALID,91.4092,VALID,0.100563,VALID,25.1813,VALID,23,VALID,0.577734,
2009-04-12, 03:04:04,VALID,1000.71,VALID,0,VALID,91.4169,VALID,0,VALID,25.1813,VALID,23,VALID,0.727344,
2009-04-12, 03:05:04,VALID,1000.72,VALID,0,VALID,91.394,VALID,0,VALID,25.2007,VALID,30,VALID,0.763281,
2009-04-12, 03:06:04,VALID,1000.71,VALID,0,VALID,91.3406,VALID,0,VALID,25.2611,VALID,13,VALID,0.799219,
2009-04-12, 03:07:04,VALID,1000.71,VALID,0,VALID,91.2872,VALID,0.100563,VALID,25.2981,VALID,33,VALID,0.954297,
2009-04-12, 03:08:04,VALID,1000.73,VALID,0,VALID,90.9897,VALID,0,VALID,25.4734,VALID,22,VALID,0.732031,
2009-04-12, 03:09:04,VALID,1000.77,VALID,0,VALID,90.3107,VALID,0,VALID,25.5707,VALID,22,VALID,0.675781,
2009-04-12, 03:10:04,VALID,1000.75,VALID,0,VALID,89.9445,VALID,0,VALID,25.6506,VALID,16,VALID,0.728906,
2009-04-12, 03:11:04,VALID,1000.77,VALID,0,VALID,89.5859,VALID,0,VALID,25.748,VALID,25,VALID,1.35156,
2009-04-12, 03:12:04,VALID,1000.77,VALID,0,VALID,88.8612,VALID,0,VALID,25.9038,VALID,10,VALID,0.651953,
2009-04-12, 03:13:04,VALID,1000.82,VALID,0,VALID,88.4111,VALID,0,VALID,25.9427,VALID,10,VALID,0.147656,
2009-04-12, 03:14:04,VALID,1000.82,VALID,0,VALID,88.1975,VALID,0,VALID,25.9817,VALID,12,VALID,0.315625,
2009-04-12, 03:15:04,VALID,1000.88,VALID,0,VALID,88.0525,VALID,0,VALID,26.0012,VALID,32,VALID,0.336328,
2009-04-12, 03:16:04,VALID,1000.9,VALID,0,VALID,87.9381,VALID,0.100563,VALID,25.9602,VALID,32,VALID,0.136719,
2009-04-12, 03:17:04,VALID,1000.9,VALID,0,VALID,87.8771,VALID,0,VALID,25.9408,VALID,32,VALID,0.286719,
2009-04-12, 03:18:04,VALID,1000.93,VALID,0,VALID,87.9228,VALID,0,VALID,26.0031,VALID,23,VALID,0.552734,
2009-04-12, 03:19:04,VALID,1000.94,VALID,0,VALID,87.8466,VALID,0,VALID,25.9602,VALID,16,VALID,0.332031,
2009-04-12, 03:20:04,VALID,1000.95,VALID,0,VALID,87.9457,VALID,0,VALID,25.9817,VALID,29,VALID,0.467187,
2009-04-12, 03:21:04,VALID,1000.95,VALID,0,VALID,88.167,VALID,0.100563,VALID,25.9622,VALID,15,VALID,0.808203,
2009-04-12, 03:22:04,VALID,1000.94,VALID,0,VALID,87.816,VALID,0,VALID,26.0187,VALID,48,VALID,0.303125,
2009-04-12, 03:23:04,VALID,1000.95,VALID,0,VALID,87.6177,VALID,0,VALID,26.0012,VALID,48,VALID,0.600781,
2009-04-12, 03:24:04,VALID,1000.95,VALID,0,VALID,87.7855,VALID,0,VALID,25.9622,VALID,48,VALID,0.336328,
2009-04-12, 03:25:04,VALID,1000.96,VALID,0,VALID,87.9686,VALID,0,VALID,25.9038,VALID,11,VALID,0.530469,
2009-04-12, 03:26:04,VALID,1000.96,VALID,0,VALID,88.2814,VALID,0,VALID,25.8239,VALID,8,VALID,0.275391,
2009-04-12, 03:27:04,VALID,1000.96,VALID,0,VALID,88.4111,VALID,0,VALID,25.746,VALID,8,VALID,0.198828,
2009-04-12, 03:28:04,VALID,1000.95,VALID,0,VALID,88.6857,VALID,0,VALID,25.6876,VALID,8,VALID,0.133594,
2009-04-12, 03:29:04,VALID,1000.94,VALID,0,VALID,88.9756,VALID,0,VALID,25.67,VALID,8,VALID,0.334375,
2009-04-12, 03:30:04,VALID,1000.92,VALID,0,VALID,89.1816,VALID,0.100563,VALID,25.6097,VALID,7,VALID,0.474609,
2009-04-12, 03:31:04,VALID,1000.93,VALID,0,VALID,89.2808,VALID,0,VALID,25.6097,VALID,357,VALID,0.65,
2009-04-12, 03:32:04,VALID,1000.92,VALID,0,VALID,89.3723,VALID,0,VALID,25.6311,VALID,354,VALID,0.730469,
2009-04-12, 03:33:04,VALID,1000.89,VALID,0,VALID,89.3037,VALID,0,VALID,25.6506,VALID,353,VALID,0.790234,
2009-04-12, 03:34:04,VALID,1000.92,VALID,0,VALID,89.1892,VALID,0,VALID,25.67,VALID,355,VALID,0.598047,
2009-04-12, 03:35:04,VALID,1000.92,VALID,0,VALID,89.0443,VALID,0,VALID,25.6895,VALID,356,VALID,0.726563,
2009-04-12, 03:36:04,VALID,1000.96,VALID,0,VALID,88.8765,VALID,0,VALID,25.7265,VALID,353,VALID,0.647266,
2009-04-12, 03:37:04,VALID,1000.95,VALID,0,VALID,88.701,VALID,0.100563,VALID,25.7674,VALID,340,VALID,0.623047,
2009-04-12, 03:38:04,VALID,1000.95,VALID,0,VALID,88.5026,VALID,0,VALID,25.8259,VALID,354,VALID,0.649609,
2009-04-12, 03:39:04,VALID,1000.95,VALID,0,VALID,88.2738,VALID,0,VALID,25.8453,VALID,355,VALID,0.601563,
2009-04-12, 03:40:04,VALID,1000.93,VALID,0,VALID,88.1593,VALID,0,VALID,25.8453,VALID,353,VALID,0.78125,
2009-04-12, 03:41:04,VALID,1000.93,VALID,0,VALID,88.1441,VALID,0,VALID,25.8239,VALID,357,VALID,0.360938,
2009-04-12, 03:42:04,VALID,1000.88,VALID,0,VALID,88.1212,VALID,0,VALID,25.8259,VALID,353,VALID,0.663281,
2009-04-12, 03:43:04,VALID,1000.86,VALID,0,VALID,88.1136,VALID,0,VALID,25.8064,VALID,348,VALID,0.883984,
2009-04-12, 03:44:04,VALID,1000.83,VALID,0,VALID,88.2661,VALID,0,VALID,25.7655,VALID,349,VALID,0.961719,
2009-04-12, 03:45:04,VALID,1000.83,VALID,0,VALID,88.3424,VALID,0,VALID,25.7674,VALID,358,VALID,0.907422,
2009-04-12, 03:46:04,VALID,1000.86,VALID,0,VALID,88.4721,VALID,0,VALID,25.709,VALID,346,VALID,0.685547,
2009-04-12, 03:47:04,VALID,1000.83,VALID,0,VALID,88.6247,VALID,0,VALID,25.6895,VALID,352,VALID,0.778516,